CAPE
11 11 10 3 4 4 6 6 7 7 5 4 2 17 5 0 0 1 8 4 11 9 0 0 0 0 0 0 4 103 166 513 489 777 718 606 600 676 767 482 596 472 406 369 435 340 286 338 528 584 840 767 805 780
12 6 6 1 1 2 2 1 6 10 7 6 3 7 16 0 0 0 11 2 7 13 0 0 0 0 0 0 0 0 99 287 267 836 922 1026 799 844 525 555 1213 687 392 548 357 511 1083 719 686 743 695 679 800 724
5 7 1 3 3 4 5 3 1 4 4 7 6 4 10 0 0 0 4 0 0 8 0 0 0 0 0 0 0 0 19 22 199 533 605 781 998 1164 687 638 709 1225 1023 758 914 209 424 722 665 639 655 630 474 459
5 4 3 4 4 4 6 5 5 3 6 5 7 9 8 1 0 3 9 0 0 2 6 0 0 0 0 0 0 0 0 1 42 255 345 482 585 701 803 993 1027 1099 984 1033 1019 966 714 628 546 525 390 329 389 441
4 1 1 3 1 2 1 2 5 6 7 4 4 7 8 0 0 6 13 1 0 1 11 0 0 0 0 0 0 0 0 0 0 61 81 191 306 492 592 481 401 727 693 1038 766 927 671 536 450 419 391 512 685 622
0 0 2 5 7 6 4 1 3 6 6 2 2 3 7 0 0 10 17 8 2 1 8 1 0 0 0 0 0 0 0 0 0 0 8 45 211 221 42 119 235 257 406 406 500 459 582 458 341 377 428 666 810 770
1 6 6 5 7 10 8 4 5 4 4 0 1 2 1 0 5 14 5 6 1 8 9 1 0 0 0 0 0 0 0 0 1 8 16 76 306 81 57 176 191 87 155 128 133 149 262 369 508 486 606 850 709 1059
4 4 7 10 11 11 8 4 2 1 1 1 0 0 0 0 1 4 5 0 0 3 7 11 0 0 0 1 0 0 0 0 2 15 13 83 377 408 196 220 151 75 69 201 250 296 323 420 535 653 818 992 1052 1110
2 5 12 8 9 10 8 1 1 0 1 1 0 0 1 5 14 4 0 0 0 1 11 10 0 19 0 6 0 0 0 15 5 17 60 144 239 365 209 318 214 155 301 338 375 268 438 674 682 613 668 926 937 1033
2 5 4 5 4 7 8 0 0 0 1 1 4 12 16 10 3 2 5 10 8 5 2 9 0 0 0 15 41 33 17 136 176 158 193 249 165 156 285 362 863 918 849 784 757 656 454 773 819 716 730 750 784 865
3 4 2 1 2 1 1 0 0 0 1 20 26 15 13 11 8 8 9 7 6 9 8 3 0 0 0 0 89 144 236 147 83 232 223 187 296 303 990 1087 1103 1078 1068 1111 1141 1092 884 601 866 983 873 891 799 1163
2 0 0 0 1 0 1 0 0 11 23 10 8 3 16 18 16 14 27 12 9 2 7 1 1 0 0 0 0 14 202 278 95 325 283 194 419 1435 1219 960 903 832 842 1002 755 936 949 788 762 912 1004 1283 1372 1662
0 0 0 0 1 1 0 1 0 1 0 3 14 13 40 28 27 24 25 21 7 1 0 0 0 0 0 0 0 2 241 179 409 259 208 201 1642 1486 1333 1018 776 702 747 1052 1123 664 647 748 883 909 1274 1616 1798 1871
0 0 0 0 0 1 0 0 1 0 7 19 27 21 12 21 19 8 15 24 38 55 40 27 58 0 0 0 0 37 188 541 205 133 228 626 1858 1483 1030 789 783 730 698 776 989 1288 717 732 841 946 1395 1770 1919 1925
2 0 1 3 0 0 0 0 1 2 12 21 36 8 21 21 17 39 37 35 47 13 16 45 47 25 5 1 0 65 203 113 54 138 241 1347 1134 908 755 660 639 575 711 781 762 955 1312 863 801 1004 1404 1728 1923 1901
0 0 5 0 0 0 0 1 6 4 5 18 36 14 10 14 32 29 3 5 1 0 0 40 132 106 73 23 27 19 16 7 103 866 971 915 847 711 574 374 413 502 597 627 731 800 1021 1375 1089 866 990 1527 1613 1681
0 16 0 0 0 0 0 4 8 6 7 32 16 5 27 31 65 24 1 1 0 0 57 43 54 55 117 61 16 10 7 111 1027 781 642 791 832 670 429 436 620 689 634 609 766 909 960 1120 1213 1249 1320 1450 1342 1502
15 23 0 0 1 2 10 8 10 16 29 25 27 29 44 65 103 26 6 4 3 5 7 30 12 47 60 71 28 439 810 856 645 553 541 713 773 762 631 864 863 827 718 648 764 886 952 1089 1266 1425 1490 1521 1420 1324
17 25 0 0 2 2 5 17 6 18 12 14 21 29 39 41 53 31 2 4 5 11 6 10 52 38 131 323 550 654 722 645 683 544 500 565 580 590 685 710 675 801 835 911 814 750 923 1240 1057 970 1123 1196 1351 1315
0 0 0 0 0 4 6 22 21 20 12 10 2 40 57 35 18 13 5 5 17 13 22 8 49 97 91 102 578 636 666 618 547 386 244 167 162 340 230 208 285 590 696 1115 1186 259 1022 927 753 598 558 426 797 1077
2 11 0 4 29 3 4 6 15 23 19 11 32 54 45 0 0 0 7 34 33 43 19 26 0 0 29 180 353 393 664 510 305 253 319 169 117 47 49 73 50 77 273 483 855 875 376 890 816 411 110 249 578 790
31 6 42 19 11 6 7 5 7 15 15 3 0 33 32 21 21 15 22 39 33 17 1 0 0 0 14 153 168 139 131 99 60 13 2 1 0 2 0 0 0 0 0 63 473 704 571 452 518 264 127 159 94 538
0 10 41 30 11 4 9 39 26 10 16 9 16 22 18 15 15 6 19 20 15 9 0 0 0 1 0 17 72 59 34 29 29 21 0 0 0 0 0 0 0 0 0 0 59 448 698 126 220 207 117 52 270 172
0 39 34 26 26 21 22 26 28 21 34 31 18 18 20 29 24 30 10 14 11 0 0 9 1 0 0 0 2 2 8 1 0 0 0 0 0 0 0 0 0 0 0 0 0 50 659 522 104 202 80 117 186 63
20 1 10 2 19 19 10 10 12 18 9 20 23 20 22 29 16 12 3 0 0 0 0 0 0 0 0 0 0 4 0 0 0 0 0 0 0 0 0 0 0 0 0 0 0 0 326 271 14 5 85 128 150 59
10 2 0 9 13 8 10 5 5 8 12 14 11 6 0 4 4 0 0 0 0 0 0 0 0 0 0 0 0 0 0 0 0 0 0 0 0 0 2 4 0 0 0 0 0 0 138 351 309 48 15 46 14 24
0 1 3 2 4 3 2 2 7 15 18 16 5 3 0 1 0 0 0 6 0 0 1 0 0 1 4 0 0 0 0 0 0 0 0 0 0 0 0 0 2 10 3 0 0 18 224 455 319 118 102 21 6 57
6 4 1 0 0 1 1 3 4 3 1 6 3 0 0 0 0 0 0 8 0 0 0 0 0 0 0 0 0 0 0 0 4 7 0 0 0 11 14 35 30 0 0 0 0 7 305 562 646 588 295 117 8 0
7 5 6 7 9 8 7 3 0 0 0 0 0 0 0 0 0 0 0 0 0 0 0 0 0 0 0 0 0 0 0 0 0 2 0 0 8 18 29 40 21 27 4 0 0 0 295 458 449 538 442 92 17 2
6 10 11 8 8 7 0 0 0 0 0 0 0 0 0 0 0 0 0 0 0 0 0 0 0 0 0 0 0 0 0 0 0 0 1 3 11 32 26 20 52 196 25 0 4 31 0 39 15 239 276 62 0 0
1 3 4 6 1 0 0 0 0 0 0 0 0 0 0 0 0 0 0 0 0 0 0 0 0 0 0 0 0 0 0 0 0 0 0 0 0 1 4 20 52 110 432 88 106 419 331 206 189 405 254 131 1 2
1 1 4 2 0 2 3 0 0 0 0 0 0 0 0 4 1 0 0 0 0 0 0 0 0 0 0 0 0 0 0 0 0 0 0 0 0 4 9 21 29 39 102 507 517 503 441 234 248 237 242 128 103 70
13 15 19 25 34 18 13 14 13 11 15 13 11 9 8 13 7 4 12 6 0 0 0 0 0 0 0 0 0 0 0 0 0 0 0 0 0 0 0 8 21 33 54 80 129 254 437 306 272 313 270 187 195 67
CIN
-3 -2 -0 -0 -3 -3 -0 -0 -0 -0 -0 -0 -0 -0 -0 -0 -0 -0 -0 -0 -0 -0 -0 -0 -0 -0 -0 -0 -18 -63 -57 -48 -28 -8 -0 -0 -0 -1 -1 -9 -0 -0 -0 -0 -0 -0 -0 -64 -81 -12 -75 -77 -102 -121
-0 -4 -3 -0 -0 -0 -0 -0 -0 -0 -0 -0 -0 -0 -1 -0 -8 -0 -0 -0 -0 -0 -0 -0 -0 -0 -0 -0 -0 -0 -112 -100 -70 -18 -7 -2 -0 -3 -1 -0 -39 -2 -1 -1 -0 -0 -25 -57 -31 -51 -85 -115 -135 -169
-2 -4 -0 -0 -0 -0 -0 -0 -0 -0 -0 -0 -0 -0 -0 -3 -0 -0 -0 -0 -0 -0 -0 -0 -0 -0 -0 -0 -0 -1 -95 -138 -125 -132 -65 -30 -20 -15 -0 -0 -1 -31 -100 -8 -10 -4 -4 -18 -58 -80 -112 -140 -192 -185
-6 -2 -0 -0 -0 -0 -0 -0 -0 -0 -0 -0 -0 -0 -0 -2 -0 -0 -0 -0 -0 -0 -0 -0 -0 -0 -0 -0 -0 -0 -0 -58 -183 -123 -62 -34 -21 -65 -1 -36 -16 -41 -82 -23 -9 -7 -17 -32 -101 -141 -174 -192 -203 -192
-3 -0 -0 -0 -0 -0 -0 -0 -0 -0 -0 -0 -0 -0 -0 -0 -0 -0 -0 -0 -0 -0 -0 -0 -0 -0 -0 -0 -0 -0 -0 -0 -0 -81 -66 -37 -24 -58 -44 -75 -24 -32 -12 -5 -0 -39 -49 -44 -76 -122 -144 -160 -180 -209
-0 -0 -0 -0 -0 -0 -0 -0 -0 -0 -0 -0 -0 -0 -0 -0 -0 -0 -0 -0 -0 -0 -0 -0 -0 -0 -0 -0 -0 -0 -0 -0 -0 -0 -120 -70 -72 -42 -64 -48 -78 -50 -45 -39 -26 -44 -73 -106 -107 -86 -116 -112 -111 -126
-1 -0 -0 -1 -1 -2 -1 -0 -0 -0 -0 -0 -0 -0 -0 -0 -0 -0 -0 -0 -0 -1 -0 -0 -0 -0 -0 -0 -0 -0 -0 -0 -113 -140 -133 -56 -9 -84 -80 -80 -83 -65 -37 -30 -44 -61 -75 -57 -44 -53 -84 -79 -187 -88
-1 -0 -2 -3 -2 -2 -3 -0 -0 -0 -0 -0 -0 -0 -0 -0 -0 -0 -0 -0 -0 -0 -0 -0 -0 -0 -0 -25 -0 -0 -0 -0 -58 -116 -116 -42 -2 -15 -44 -99 -62 -44 -50 -27 -37 -39 -36 -37 -50 -55 -68 -53 -43 -60
-2 -1 -0 -0 -3 -2 -3 -0 -0 -0 -0 -0 -0 -0 -0 -0 -0 -0 -0 -0 -0 -0 -0 -0 -0 -11 -0 -68 -15 -0 -0 -26 -66 -84 -31 -1 -0 -2 -49 -26 -29 -26 -28 -31 -44 -59 -50 -44 -49 -66 -47 -45 -52 -56
-2 -1 -0 -0 -0 -3 -1 -0 -0 -0 -0 -0 -0 -0 -0 -0 -0 -0 -0 -0 -0 -0 -0 -0 -0 -0 -0 -34 -17 -4 -30 -0 -3 -3 -2 -5 -12 -15 -9 -13 -34 -55 -63 -70 -66 -58 -44 -39 -44 -44 -48 -44 -49 -57
-2 -1 -1 -0 -0 -0 -0 -0 -0 -0 -0 -0 -0 -0 -0 -0 -0 -0 -2 -0 -0 -0 -0 -0 -0 -0 -0 -0 -0 -0 -0 -0 -0 -0 -1 -0 -6 -0 -43 -53 -85 -115 -133 -133 -117 -98 -65 -44 -27 -30 -41 -61 -72 -55
-2 -0 -0 -0 -0 -0 -0 -0 -0 -0 -0 -2 -0 -0 -0 -0 -3 -2 -0 -0 -0 -1 -0 -0 -0 -0 -0 -0 -0 -2 -0 -0 -1 -12 -0 -1 -1 -44 -47 -76 -106 -133 -150 -125 -140 -114 -110 -86 -56 -44 -36 -48 -50 -71
-3 -0 -0 -0 -0 -0 -0 -0 -0 -0 -0 -0 -0 -1 -0 -1 -0 -0 -0 -1 -1 -0 -0 -0 -0 -0 -0 -0 -0 -0 -0 -0 -4 -0 -0 -0 -28 -41 -55 -90 -110 -133 -147 -118 -103 -136 -146 -100 -70 -59 -43 -48 -70 -59
-0 -0 -0 -0 -0 -0 -0 -0 -0 -0 -0 -0 -0 -0 -0 -0 -0 -0 -0 -0 -0 -9 -5 -1 -6 -0 -0 -0 -0 -0 -0 -0 -0 -0 -0 -0 -10 -38 -88 -122 -122 -109 -129 -138 -145 -115 -145 -119 -76 -73 -47 -55 -71 -64
-1 -0 -0 -0 -0 -0 -0 -0 -0 -0 -0 -0 -0 -0 -0 -0 -0 -0 -0 -0 -0 -0 -5 -3 -0 -3 -1 -5 -0 -0 -0 -0 -23 -2 -0 -14 -80 -104 -120 -138 -124 -135 -121 -119 -140 -138 -119 -122 -99 -77 -67 -67 -67 -55
-0 -0 -0 -0 -0 -0 -0 -0 -0 -0 -0 -2 -0 -0 -0 -0 -0 -0 -4 -1 -0 -0 -0 -0 -4 -3 -0 -0 -0 -0 -0 -0 -7 -9 -30 -81 -86 -110 -135 -155 -156 -150 -141 -127 -134 -133 -120 -112 -109 -88 -97 -83 -77 -72
-0 -0 -0 -0 -0 -0 -0 -0 -0 -0 -3 -0 -0 -2 -0 -0 -0 -0 -0 -0 -0 -0 -0 -1 -5 -6 -2 -0 -0 -0 -0 -0 -7 -34 -57 -72 -73 -92 -129 -136 -112 -113 -122 -134 -124 -113 -110 -121 -120 -104 -107 -92 -90 -62
-0 -0 -0 -0 -0 -0 -0 -0 -0 -0 -0 -0 -0 -0 -0 -0 -0 -5 -0 -0 -0 -0 -19 -0 -3 -11 -3 -0 -0 -2 -2 -11 -24 -38 -49 -65 -65 -70 -75 -47 -57 -77 -104 -127 -125 -115 -94 -82 -83 -61 -79 -86 -78 -72
-2 -0 -0 -0 -0 -0 -0 -0 -0 -0 -0 -0 -0 -0 -0 -0 -3 -3 -0 -0 -0 -0 -0 -2 -0 -0 -1 -0 -3 -0 -6 -14 -22 -28 -45 -51 -50 -46 -36 -32 -40 -34 -48 -62 -88 -86 -68 -66 -79 -72 -59 -91 -63 -58
-0 -0 -0 -0 -0 -0 -0 -0 -0 -0 -0 -0 -0 -0 -0 -0 -1 -5 -0 -4 -4 -3 -0 -0 -0 -6 -15 -19 -0 -0 -0 -7 -16 -18 -25 -28 -32 -32 -36 -40 -26 -28 -17 -1 -0 -69 -12 -31 -72 -103 -122 -177 -104 -66
-1 -2 -0 -0 -0 -0 -0 -0 -0 -0 -0 -0 -0 -0 -0 -0 -0 -0 -0 -0 -0 -0 -0 -3 -5 -0 -38 -20 -1 -7 -6 -8 -0 -1 -0 -3 -41 -31 -21 -17 -29 -16 -5 -4 -0 -5 -73 -0 -7 -84 -166 -143 -89 -50
-0 -10 -0 -1 -0 -0 -0 -0 -0 -1 -0 -0 -0 -0 -0 -0 -0 -0 -0 -0 -0 -0 -0 -0 -0 -0 -40 -14 -30 -23 -25 -56 -51 -60 -14 -3 -0 -6 -0 -0 -0 -0 -0 -19 -7 -1 -1 -13 -3 -49 -98 -87 -133 -49
-2 -7 -0 -0 -0 -2 -0 -0 -0 -1 -3 -0 -0 -0 -0 -0 -0 -0 -0 -0 -0 -0 -0 -0 -0 -28 -0 -8 -19 -29 -41 -41 -12 -13 -0 -0 -0 -0 -0 -0 -0 -0 -0 -0 -18 -2 -0 -21 -41 -30 -58 -92 -53 -101
-0 -0 -0 -0 -0 -0 -0 -0 -0 -0 -0 -0 -0 -0 -0 -0 -0 -0 -0 -0 -0 -0 -0 -0 -0 -0 -0 -0 -4 -0 -9 -30 -3 -3 -0 -0 -0 -0 -0 -0 -0 -0 -0 -0 -0 -46 -6 -19 -61 -22 -50 -75 -60 -103
-0 -1 -0 -0 -0 -0 -0 -0 -0 -0 -0 -0 -0 -0 -0 -0 -0 -0 -0 -0 -0 -0 -0 -0 -0 -0 -0 -0 -0 -0 -0 -0 -0 -0 -0 -0 -0 -0 -0 -0 -0 -0 -0 -0 -0 -6 -26 -34 -124 -146 -59 -36 -45 -87
-0 -0 -0 -0 -0 -0 -0 -0 -0 -0 -0 -0 -0 -0 -0 -2 -0 -0 -0 -0 -0 -0 -3 -0 -0 -0 -0 -0 -0 -0 -0 -0 -0 -0 -0 -0 -0 -0 -0 -0 -0 -0 -0 -0 -0 -0 -23 -19 -30 -88 -89 -60 -89 -86
-0 -0 -0 -0 -0 -0 -0 -0 -0 -0 -0 -0 -0 -0 -0 -0 -0 -0 -0 -84 -0 -0 -12 -8 -0 -0 -0 -0 -0 -0 -0 -0 -0 -0 -0 -0 -0 -0 -0 -0 -0 -0 -0 -0 -0 -22 -3 -0 -21 -59 -55 -85 -51 -65
-0 -0 -0 -0 -0 -0 -0 -0 -0 -0 -0 -0 -0 -0 -0 -0 -0 -0 -0 -110 -0 -0 -0 -0 -0 -0 -0 -0 -0 -0 -0 -0 -12 -17 -0 -0 -0 -1 -1 -4 -4 -0 -0 -0 -0 -24 -4 -0 -0 -2 -21 -63 -122 -72
-0 -0 -0 -0 -0 -0 -0 -0 -0 -0 -0 -0 -0 -0 -0 -0 -0 -0 -0 -0 -0 -0 -0 -0 -0 -0 -0 -0 -0 -0 -0 -0 -0 -1 -0 -0 -0 -0 -0 -1 -2 -4 -7 -0 -0 -0 -11 -0 -5 -0 -5 -46 -82 -8
-0 -0 -0 -0 -0 -0 -0 -0 -0 -0 -0 -0 -0 -0 -0 -0 -0 -0 -0 -0 -0 -0 -0 -0 -0 -0 -0 -0 -0 -0 -0 -0 -0 -0 -0 -0 -0 -0 -0 -0 -0 -3 -2 -0 -3 -24 -0 -16 -32 -43 -33 -73 -0 -0
-0 -0 -0 -0 -0 -0 -0 -0 -0 -0 -0 -0 -0 -0 -0 -0 -0 -0 -0 -0 -0 -0 -0 -0 -0 -0 -0 -0 -0 -0 -0 -0 -0 -0 -0 -0 -0 -3 -4 -1 -4 -4 -0 -14 -40 -6 -14 -21 -16 -7 -21 -33 -29 -32
-0 -0 -0 -0 -0 -0 -0 -0 -0 -0 -0 -0 -0 -0 -0 -0 -0 -0 -0 -0 -0 -0 -0 -0 -0 -0 -0 -0 -0 -0 -0 -0 -0 -0 -0 -0 -0 -21 -16 -5 -6 -3 -12 -0 -0 -0 -3 -3 -3 -1 -0 -8 -31 -37
-0 -0 -0 -0 -0 -0 -0 -0 -0 -0 -0 -0 -0 -0 -0 -0 -0 -0 -0 -0 -0 -0 -0 -0 -0 -0 -0 -0 -0 -0 -0 -0 -0 -0 -0 -0 -0 -0 -0 -15 -3 -3 -12 -9 -0 -0 -0 -0 -0 -0 -1 -0 -2 -28
Wind_Speed
8 7 8 9 9 9 8 10 10 9 9 9 8 9 10 8 7 4 2 3 5 6 10 9 7 8 7 6 7 6 7 6 6 7 7 4 8 4 6 2 3 7 7 7 3 5 11 6 6 7 6 4 8 8
7 7 9 10 10 10 10 10 10 9 8 9 9 8 11 10 9 6 3 2 3 5 8 12 13 14 16 16 8 5 6 5 4 6 2 4 6 3 9 8 6 9 5 8 5 5 6 4 8 6 7 8 7 9
7 7 9 10 10 10 10 11 11 10 8 9 9 9 12 11 10 10 2 2 2 4 9 10 9 10 17 20 14 8 6 4 3 5 6 3 6 4 7 10 6 3 3 5 5 12 5 5 6 7 9 8 9 9
7 8 9 10 11 11 11 11 12 11 9 8 10 10 11 12 11 11 3 3 2 4 6 1 2 5 4 10 17 20 13 4 6 4 6 5 5 1 2 5 5 7 0 4 9 12 9 8 6 6 6 6 8 9
7 8 9 10 11 11 13 12 12 12 10 9 9 10 11 12 11 7 5 4 3 3 6 9 19 14 8 15 14 15 16 15 7 7 6 7 2 5 2 3 7 6 6 7 8 5 5 6 6 7 7 6 7 7
7 9 9 10 11 12 12 12 12 11 10 9 8 8 11 13 11 3 3 4 7 4 3 6 5 6 4 4 11 15 11 9 8 6 7 6 1 6 5 8 6 11 8 9 8 6 7 11 14 11 7 5 5 6
8 8 9 11 12 12 11 10 9 9 9 8 6 8 12 13 6 3 3 4 7 4 4 6 5 6 3 5 5 8 10 5 6 8 8 9 6 5 7 12 12 10 9 11 12 11 11 13 8 7 6 3 4 4
7 8 11 12 12 11 9 7 8 7 7 4 2 8 11 10 3 4 6 8 6 3 5 6 5 4 9 5 6 5 7 7 7 7 5 7 5 5 8 10 11 14 12 10 10 10 14 12 8 7 7 7 8 6
7 10 8 10 12 10 8 7 6 6 4 3 8 13 4 2 3 1 13 11 1 2 4 4 5 3 5 4 4 6 5 6 4 7 9 6 9 8 9 13 14 13 9 11 11 12 11 10 11 12 11 11 11 6
7 7 8 10 11 10 8 6 6 5 4 9 3 2 3 4 17 14 3 4 3 3 4 6 5 6 4 6 8 6 6 7 7 9 4 6 12 14 14 10 7 10 13 13 15 15 13 9 9 12 14 12 10 7
4 4 7 9 9 10 6 6 7 5 6 2 3 2 3 15 3 3 4 5 4 4 7 7 13 10 4 6 4 5 4 6 7 7 7 6 8 8 5 5 4 7 9 12 15 17 15 10 8 9 9 7 7 7
4 4 6 6 8 8 8 6 8 4 2 1 2 3 2 3 4 5 5 4 6 6 7 7 8 8 5 4 6 4 5 5 6 8 6 7 4 8 6 1 3 6 8 9 9 12 12 12 10 8 7 8 10 11
6 5 5 5 7 7 8 9 12 5 6 1 3 4 4 4 6 6 7 5 6 5 5 7 7 5 5 7 5 4 6 7 4 7 7 3 9 7 4 2 3 5 6 7 5 4 9 11 11 9 9 8 9 11
8 6 6 5 6 7 6 10 11 9 2 3 4 5 5 5 6 5 6 7 4 3 4 6 5 6 4 7 5 7 6 2 8 14 13 6 8 6 4 2 4 4 5 6 7 6 3 8 9 9 10 11 12 12
6 5 7 7 3 3 5 6 2 1 3 4 4 5 7 7 5 4 4 5 3 4 4 4 4 5 6 5 5 6 6 7 7 13 6 10 8 5 4 3 2 3 5 5 6 7 6 5 8 9 10 11 12 12
6 6 5 5 2 2 3 1 2 1 3 3 6 4 5 5 9 6 4 4 3 4 4 5 4 3 7 6 8 11 9 8 7 4 7 8 8 6 4 2 2 4 5 6 5 5 6 4 7 9 10 11 13 15
7 4 7 3 2 3 4 2 3 4 4 5 5 7 7 4 4 2 1 2 5 2 3 2 5 9 4 7 11 7 9 3 7 7 6 6 5 4 3 2 4 5 6 6 7 5 4 3 4 6 10 12 13 15
4 5 5 2 2 1 3 3 3 5 7 6 4 7 8 6 4 3 3 2 2 2 3 1 5 3 4 7 10 6 5 6 6 7 7 7 6 5 3 3 1 3 4 5 6 6 7 4 5 5 7 9 10 13
3 3 6 3 0 1 2 5 3 3 4 2 5 6 5 4 4 3 4 3 1 2 3 2 5 3 7 2 2 5 8 8 9 8 8 6 5 4 3 1 1 4 4 5 5 5 5 5 6 3 4 8 8 9
5 7 7 6 2 1 3 3 2 3 3 3 3 5 5 5 4 5 5 4 3 2 3 4 5 3 3 9 5 5 6 7 9 8 7 6 5 4 3 3 3 3 3 2 1 4 3 3 2 3 4 5 5 9
6 5 9 7 3 2 2 2 3 3 2 4 5 7 5 4 5 8 8 8 6 5 5 5 6 7 1 9 6 3 6 6 5 5 6 7 4 1 2 1 2 2 3 4 4 0 5 2 2 2 6 6 5 8
3 5 3 5 3 3 3 4 3 2 2 2 2 4 4 6 9 10 8 11 8 9 12 11 9 3 5 11 5 3 6 4 3 4 1 3 4 4 4 3 3 4 3 4 5 5 3 2 1 4 5 6 4 6
3 4 3 3 4 5 3 6 4 4 4 3 4 5 5 6 5 6 7 9 11 11 10 12 14 13 11 7 6 7 6 6 6 5 4 4 4 5 5 6 5 5 5 3 3 4 3 3 2 3 5 7 7 6
1 4 5 5 7 4 3 5 5 4 5 6 5 7 7 6 4 6 10 12 9 8 11 13 12 12 10 7 10 9 7 6 6 5 5 5 6 8 7 8 6 6 6 4 4 3 2 3 1 3 6 5 10 10
4 4 5 5 5 5 6 6 7 6 7 8 10 7 4 4 6 10 11 8 9 9 9 10 12 12 11 10 11 11 11 7 8 7 6 6 8 8 8 6 8 7 7 5 7 5 4 4 5 4 5 7 8 12
4 6 6 7 5 7 7 5 6 10 7 6 6 4 2 5 7 7 5 7 8 6 7 8 8 9 9 6 7 7 8 6 7 7 7 6 7 9 8 7 7 7 7 6 7 7 5 5 6 9 6 7 9 9
5 7 6 4 4 3 4 5 4 4 6 6 4 5 5 6 6 3 1 3 4 4 4 4 4 5 5 6 5 4 4 6 8 6 3 3 6 6 8 8 9 5 3 5 5 6 5 6 8 9 9 6 8 11
6 4 10 8 7 7 10 7 6 7 7 5 4 7 5 6 3 2 2 4 5 5 5 5 4 4 4 4 3 3 4 5 7 7 6 8 8 7 6 5 5 4 5 3 3 3 4 5 7 12 12 12 10 8
5 4 5 9 8 6 7 8 8 6 5 6 7 7 5 3 2 2 2 5 6 6 6 5 5 2 2 2 3 4 3 4 6 10 12 9 9 9 8 4 4 4 5 8 4 4 3 3 5 8 11 11 10 10
8 8 6 8 8 8 8 9 7 7 7 7 9 9 7 7 4 3 4 5 6 7 7 6 5 4 5 5 5 5 4 4 5 6 8 9 9 1 2 3 2 3 4 6 6 7 3 5 5 6 8 10 9 6
2 5 7 9 8 8 9 10 9 10 9 10 10 12 13 10 10 9 9 9 10 10 11 11 11 10 9 9 9 8 8 7 5 3 4 6 5 4 4 2 2 1 3 6 7 8 8 8 7 10 12 13 12 12
5 10 5 6 5 3 7 5 6 5 5 9 12 11 12 13 16 12 11 12 13 14 14 14 14 13 13 10 10 10 7 9 6 6 6 5 4 4 5 5 5 4 3 4 6 7 10 9 8 10 12 16 16 16
4 5 4 3 3 5 5 5 4 4 6 5 6 9 11 9 10 7 6 8 12 13 13 13 12 12 13 14 13 10 11 11 12 5 0 5 7 5 8 7 6 4 5 6 6 7 10 10 9 11 12 14 15 14
Wind_Direction
307 321 323 324 326 325 317 315 306 298 296 293 293 227 199 196 185 198 317 262 286 285 291 269 265 264 242 246 274 46 264 189 250 246 257 200 268 141 248 302 250 233 242 220 240 269 249 113 132 250 28 354 359 351
310 319 324 317 316 315 312 309 309 297 288 284 283 257 199 191 187 189 261 245 254 256 295 318 277 274 264 274 301 246 334 328 352 276 247 326 224 227 259 230 161 245 289 314 295 357 65 172 304 342 350 335 350 338
299 313 312 310 312 313 312 311 307 305 292 283 278 261 201 194 185 190 225 152 233 270 267 239 241 246 227 238 244 258 227 260 223 358 324 327 270 320 244 235 300 152 351 262 315 244 310 350 333 310 303 306 321 321
295 306 306 309 310 312 309 308 304 301 292 278 276 250 209 192 188 188 205 173 252 288 282 338 129 240 223 219 220 232 258 233 294 272 277 282 282 10 322 344 294 26 299 277 253 268 300 88 28 11 340 312 302 305
282 290 295 301 305 307 306 305 303 296 292 283 277 237 207 185 185 197 234 212 249 286 316 309 300 271 248 235 224 219 230 238 253 248 234 251 307 247 183 268 248 192 255 251 292 45 328 330 358 347 322 323 325 309
274 282 294 299 299 296 298 298 297 293 291 288 272 225 198 174 162 180 257 192 205 187 272 281 3 258 195 227 219 210 207 211 227 232 243 251 184 270 260 259 267 263 246 274 282 300 279 294 298 285 280 296 318 310
267 284 296 287 285 285 286 276 283 289 291 290 266 215 177 160 182 225 357 49 139 162 242 273 247 145 184 157 163 189 198 205 225 225 235 250 202 219 257 258 255 266 262 270 275 283 281 261 282 282 219 231 202 289
270 282 284 291 293 284 275 280 277 275 284 284 293 185 155 155 22 278 180 146 150 226 244 265 266 226 187 178 154 168 173 201 207 242 229 236 160 233 250 254 255 258 270 280 275 268 261 278 270 222 217 211 227 247
262 279 301 312 310 296 266 265 266 268 262 182 118 114 102 160 198 213 130 158 209 278 284 241 272 84 175 210 101 182 188 192 186 221 225 219 220 219 238 245 254 259 260 284 290 281 281 268 258 229 233 231 247 230
262 284 300 315 318 315 272 247 237 242 199 146 147 181 189 191 121 123 142 158 185 212 239 257 258 254 248 170 185 181 193 227 194 205 167 230 245 251 241 270 287 276 269 269 264 259 255 248 232 222 227 238 241 243
240 297 305 311 318 333 299 226 210 198 154 215 195 207 66 137 167 193 192 193 174 226 210 229 233 241 180 253 208 214 191 191 231 171 218 217 234 212 166 224 268 288 277 264 253 255 263 267 246 231 233 230 223 195
201 252 282 318 322 329 334 260 202 187 191 166 119 99 137 199 206 213 193 185 208 228 188 225 205 214 218 247 238 192 240 194 242 133 216 239 168 141 169 194 322 320 314 299 258 244 242 239 234 234 221 194 191 180
200 240 269 298 334 338 325 318 200 151 125 187 217 194 183 157 224 218 187 192 206 208 200 190 178 187 190 225 212 232 221 231 114 206 215 250 132 154 165 246 295 328 351 359 356 267 224 222 222 215 200 186 168 165
204 227 260 284 297 336 348 339 193 160 192 225 178 225 202 188 228 198 220 205 211 232 228 199 162 206 189 188 222 219 213 174 228 222 217 163 160 157 186 239 285 332 335 3 11 360 222 215 219 209 202 181 173 172
196 230 255 260 254 328 358 353 58 177 190 234 203 221 220 228 247 237 280 282 223 270 261 206 239 221 186 227 206 233 192 224 212 221 227 111 141 152 173 198 245 341 349 337 348 2 6 225 216 210 205 184 175 171
212 240 230 171 226 316 349 329 176 214 231 227 224 239 234 258 239 216 242 245 24 332 286 259 227 234 220 223 195 211 227 220 180 140 110 135 145 150 163 213 275 303 305 319 342 340 350 328 231 217 202 194 183 172
197 226 157 186 282 284 223 187 176 217 234 214 224 236 243 274 279 126 101 33 339 265 212 262 237 214 250 222 217 213 224 213 120 129 130 120 143 155 169 228 265 278 285 293 302 309 329 314 245 198 196 192 189 178
232 142 161 155 336 161 162 203 233 226 225 222 224 236 224 242 210 169 141 76 341 351 292 325 302 253 264 231 214 142 151 123 120 126 122 129 135 139 148 99 37 311 295 283 290 296 293 292 244 214 197 179 189 179
128 153 171 158 39 187 208 196 219 247 238 245 220 247 237 225 229 159 150 137 234 272 288 213 255 220 259 315 263 151 153 153 141 139 127 136 145 143 153 145 65 18 348 306 288 291 299 308 312 291 197 166 193 181
211 211 204 206 232 202 237 216 228 246 244 202 212 225 237 238 176 192 192 174 184 168 248 229 229 209 235 318 297 172 151 139 145 151 150 147 146 165 84 3 14 359 1 357 255 276 230 243 231 216 186 188 203 184
188 148 189 198 175 210 280 284 243 238 255 251 273 217 220 191 219 226 222 179 195 204 200 238 254 297 137 271 263 164 151 167 171 175 153 157 161 213 233 213 329 342 3 357 334 33 246 277 91 165 165 178 218 206
123 168 176 196 202 197 249 214 257 319 244 268 270 254 241 236 236 232 228 215 230 223 223 228 237 265 269 248 175 206 159 155 151 119 127 141 214 223 261 294 297 318 358 357 347 317 318 298 104 149 182 161 197 211
139 207 197 191 220 204 244 166 226 198 224 221 193 211 214 220 229 203 224 231 234 232 234 223 229 218 239 252 207 202 201 201 203 218 213 240 255 259 258 259 264 273 294 321 335 334 300 28 133 148 149 160 163 163
165 209 214 206 205 236 214 210 211 217 225 225 228 234 232 224 175 227 240 235 226 230 227 223 222 219 214 190 237 233 212 219 241 237 242 258 268 265 252 257 239 252 266 281 289 314 272 234 253 166 150 185 174 172
188 227 184 236 206 225 217 217 209 214 233 218 236 237 231 201 236 245 251 240 228 223 227 218 218 227 222 212 222 227 224 239 245 246 246 246 260 264 258 235 239 253 270 248 262 247 213 192 193 189 188 183 185 179
222 206 202 202 194 213 205 227 214 222 232 227 230 244 215 240 248 249 245 241 219 210 214 220 218 218 224 243 243 231 226 207 232 235 242 247 235 251 249 260 264 255 249 232 244 243 208 225 200 194 185 203 188 190
240 212 192 234 271 208 240 246 262 248 223 225 226 209 211 226 239 246 105 228 199 187 167 176 188 193 170 169 186 202 212 218 230 245 288 247 256 243 246 254 271 297 340 271 243 249 232 185 176 188 194 188 188 194
245 248 217 199 214 227 250 250 235 223 220 211 217 212 224 221 253 81 215 156 132 139 134 123 110 120 131 126 141 186 211 211 220 231 239 241 234 236 225 243 262 135 262 218 229 228 226 202 167 178 182 187 185 185
222 233 246 244 229 228 227 223 236 228 222 216 230 227 234 237 302 220 173 171 167 170 170 175 166 187 220 201 226 223 225 246 231 214 225 238 217 203 196 214 272 241 209 197 129 346 287 229 191 168 167 172 170 165
232 203 230 220 205 229 225 214 253 255 250 246 255 260 246 234 233 232 173 188 208 217 222 226 241 236 245 254 253 251 254 250 257 269 253 236 241 224 97 239 228 237 209 200 168 150 127 165 132 153 154 149 152 129
220 199 236 247 249 242 252 261 260 258 258 261 256 256 261 269 266 242 225 231 241 242 245 247 247 239 240 240 241 240 246 239 224 239 272 286 287 272 269 285 206 175 180 204 177 172 168 179 174 165 161 160 165 166
210 213 231 241 265 298 335 280 268 261 257 244 247 258 265 258 252 256 243 241 234 236 236 238 243 241 238 232 228 240 238 262 249 205 228 244 260 257 267 254 227 200 189 186 183 184 178 189 178 181 174 171 174 182
222 226 217 271 248 239 226 206 224 258 236 243 241 239 235 237 254 268 266 234 240 239 240 242 238 239 241 245 237 222 215 236 235 232 157 307 289 299 308 298 290 240 199 226 210 211 201 201 196 193 196 194 193 184